Location: Darmstadt
(49.8706°N, 8.6494°E)
Time: 06:55:06
(UTC+01:00)

FALCON 9 DEB - Pass Details

Date: 31 October 2020
Orbit: 427 x 438 km, 53.0° (Epoch: 03 December)

Event Time Altitude Azimuth Distance (km) Brightness Sun altitude
Rises 18:02:04 0° 291° (WNW) 2,402 8.0 -9.9°
Reaches altitude 10° 18:04:11 10° 292° (WNW) 1,531 6.9 -10.2°
Maximum altitude 18:07:37 81° 19° (NNE) 440 3.0 -10.8°
Enters shadow 18:10:23 15° 107° (ESE) 1,254 4.9 -11.2°
